Weather in Shushnur

Russia / Republic of Bashkortostan     55°53′39″N   54°21′32″E
temp.,
°C
wind,
m/s
gust,
m/s
humid.,
%
clouds,
%
prec.,
mm/h
press.,
hPa
HPBL,
m
28 february, sun
sun2823:00−11e6119399 1.4 1001322
02:00−11ene5994100 0.2 1001274
05:00−13ne599494 0.3 1001245
08:00−14nne599480 0.1 1002223
11:00−12nne599383 0.1 1003366
14:00−9nne589197 0.1 1004506
17:00−9nne589199 0.3 1006602
20:00−11n5994100 0.1 1008395
1 march, mon
mon123:00−13n499493 0.2 1010241
02:00−16n489692 0.0 1012150
05:00−17n479689 0.1 1014161
08:00−20n349872 0.0 101668
11:00−18n359565 0.0 1018190
14:00−14nw238870 0.0 1018413
17:00−14wnw359385 0.1 1019261
20:00−19w239569 0.0 101821
2 march, tue
tue223:00−20sw2310055 0.0 101822
02:00−21sw3410085 0.0 101770
05:00−22s479782 0.0 1014128
08:00−19s5995100 0.0 1011255
11:00−15s71194100 0.1 1008357
14:00−12s71194100 0.8 1005527
17:00−10s71194100 1.4 1003600
20:00−9s61194100 0.7 1001516
3 march, wed
wed323:00−8s71295100 1.4 1000447
02:00−6sse61095100 1.2 998416
05:00−5sse4796100 2.4 997310
08:00−5sse1197100 1.3 99625
11:00−5nnw4794100 1.8 997339
14:00−5nw4691100 0.0 998426
17:00−5wnw4893100 0.0 999447
20:00−4wnw4991100 0.1 1001344
4 march, thu
thu423:00−6nw499499 0.3 1003270
02:00−9nw489495 0.0 1004175
05:00−13wnw349564 0.0 100664
08:00−14wnw489588 0.1 1007151
11:00−11w479466 0.1 1008289
14:00−9wsw579493 0.0 1008369
17:00−7sw6109296 0.1 1006604
20:00−6ssw71492100 0.1 1004634